Regional Weather Roundup
Issued by NWS

Home | Current Version | Previous Version | Graphics & Text | Print | Product List | Glossary On
Versions: 1 2 3 4 5 6 7 8 9 10 11 12 13 14 15 16 17 18 19 20 21 22 23 24 25 26 27 28 29 30 31 32 33 34 35 36 37 38 39 40 41 42 43 44 45 46 47 48 49 50
000
ASUS43 KFSD 180610
RWRSD

WEATHER ROUNDUP FOR SOUTH DAKOTA
NATIONAL WEATHER SERVICE SIOUX FALLS SD
1200 AM CST MON DEC 18 2017

NOTE: "FAIR" INDICATES FEW OR NO CLOUDS BELOW 12,000 FEET WITH NO
SIGNIFICANT WEATHER AND/OR OBSTRUCTIONS TO VISIBILITY.


SDZ001>005-009-010-012>017-180700-
NORTHWEST AND NORTH CENTRAL SOUTH DAKOTA

CITY           SKY/WX    TMP DP  RH WIND       PRES   REMARKS
BUFFALO          N/A     31  22  69 W16       29.71F WCI  20
FAITH            N/A     31  22  69 W9        29.80S WCI  23
MOBRIDGE       CLEAR     31  26  82 SW6       29.75F WCI  25
$$

SDZ012>016-024>037-041>051-057-063-072>074-180700-
SOUTHWEST AND SOUTH CENTRAL SOUTH DAKOTA

CITY           SKY/WX    TMP DP  RH WIND       PRES   REMARKS
RAPID CTY ARPT CLOUDY    27  16  63 SW3       29.85F
PIERRE         CLOUDY    31  28  89 SW8       29.82S WCI  23
CUSTER         CLOUDY    27  15  61 NW8       29.83S WCI  19
ELLSWORTH AFB  CLOUDY    28  17  64 W7        29.84S WCI  21
PHILIP         CLOUDY    27  24  89 W9        29.85S WCI  18
PINE RIDGE     CLOUDY    27  21  78 W3        29.90S
SPEARFISH      FAIR      34  19  55 W15G22    29.83F WCI  24
WINNER         FAIR      33  28  81 SW12      29.84F WCI  24
$$

SDZ004>011-016>023-039-040-180700-
NORTHEAST SOUTH DAKOTA

CITY           SKY/WX    TMP DP  RH WIND       PRES   REMARKS
ABERDEEN       CLOUDY    31  29  92 S9        29.81F WCI  23
WATERTOWN      CLOUDY    32  29  88 S10       29.83F WCI  24
BROOKINGS      CLOUDY    33  27  78 S8        29.87F WCI  26
SISSETON         N/A     37  32  82 S8        29.81F
$$

SDZ017-020-022-023-036>040-048>070-180700-
SOUTHEAST SOUTH DAKOTA

CITY           SKY/WX    TMP DP  RH WIND       PRES   REMARKS
SIOUX FALLS    CLOUDY    34  28  79 S6        29.91F WCI  29
HURON          PTCLDY    33  28  81 MISG      29.85F
CHAMBERLAIN    CLEAR     32  30  94 SW8       29.84F WCI  25
MITCHELL       MOCLDY    35  27  72 S12       29.89F WCI  27
YANKTON        MOCLDY    29  25  85 S5        29.93F WCI  24
$$

ABBREVIATIONS USED IN REMARKS
   TC - TEMPERATURE IN CELSIUS
  WCI - WIND CHILL INDEX
   HX - HEAT INDEX
  VSB - VISIBILITY





USA.gov is the U.S. government's official web portal to all federal, state and local government web resources and services.